Location: ActonStarParty
(42.4766°N, 71.4538°W)
Time: 20:23:19
(UTC-05:00)

ATLAS 5 CENTAUR R/B - Visible Passes

Search period start: 25 November 2014 00:00
Search period end: 05 December 2014 00:00
Orbit: 369 x 14898 km, 60.9° (Epoch: 10 November)

Date Brightness Start Highest point End Pass type
(mag) Time Alt. Az. Time Alt. Az. Time Alt. Az.
25 Nov 7.0 00:00:00 31° WNW 00:54:54 54° N 01:14:19 10° ENE visible
25 Nov 4.8 05:25:45 10° NW 05:51:35 47° WSW 05:58:04 10° S visible
25 Nov 7.7 16:31:25 10° SSE 18:20:51 58° E 19:15:52 10° NE visible
25 Nov 7.2 21:23:33 10° SW 23:38:39 59° NNW 00:06:15 10° ENE visible
26 Nov 4.7 04:09:39 10° NW 04:45:41 81° WSW 04:52:40 10° SSE visible
26 Nov 7.8 15:37:14 10° SE 17:14:27 43° E 18:06:31 10° NE visible
26 Nov 7.3 20:05:28 10° SW 22:20:26 69° NW 22:58:06 10° NE visible
27 Nov 5.3 02:48:13 10° NW 03:37:46 71° NE 03:46:14 10° ESE visible
27 Nov 7.9 14:52:17 10° ESE 16:10:18 30° ENE 16:55:39 10° NE visible
27 Nov 7.4 18:53:31 10° SSW 21:02:55 82° WNW 21:49:55 10° NE visible
28 Nov 6.0 01:15:29 10° WNW 02:27:52 57° NNE 02:39:03 10° E visible
28 Nov 7.5 17:45:54 10° S 19:48:28 84° ESE 20:41:38 10° NE visible
28 Nov 6.7 23:30:05 10° W 01:15:47 53° N 01:31:17 10° E visible
29 Nov 5.3 05:46:33 10° NW 06:06:02 30° W 06:12:29 10° SSW visible
29 Nov 7.6 16:42:16 10° SSE 18:37:24 68° E 19:33:07 10° NE visible
29 Nov 7.0 21:51:46 10° WSW 00:01:06 55° NNW 00:23:10 10° ENE visible
30 Nov 4.7 04:31:42 10° NW 05:01:17 58° WSW 05:07:55 10° S visible
30 Nov 7.7 15:43:31 10° SSE 17:29:15 53° E 18:24:07 10° NE visible
30 Nov 7.2 20:27:24 10° SW 22:43:40 62° NNW 23:14:53 10° ENE visible
01 Dec 4.8 03:13:58 10° NW 03:54:33 88° NE 04:01:59 10° SE visible
01 Dec 7.8 14:51:52 10° SE 16:23:33 39° E 17:14:11 10° NE visible
01 Dec 7.3 19:11:39 10° SSW 21:24:57 73° NW 22:06:33 10° NE visible
02 Dec 5.5 01:49:03 10° NW 02:45:48 65° NNE 02:55:07 10° ESE visible
02 Dec 7.4 18:01:11 10° SSW 20:08:01 86° WNW 20:58:09 10° NE visible
03 Dec 6.3 00:10:40 10° WNW 01:35:00 55° NNE 01:47:33 10° E visible
03 Dec 5.5 06:07:02 10° NW 06:19:18 18° WNW 06:25:10 10° WSW visible
03 Dec 7.5 16:54:45 10° S 18:54:35 78° ESE 19:49:37 10° NE visible
03 Dec 6.8 22:25:05 10° W 00:21:51 53° N 00:39:29 10° ENE visible
04 Dec 5.0 04:52:02 10° NW 05:15:28 38° W 05:22:03 10° SSW visible
04 Dec 7.6 15:52:29 10° SSE 17:44:28 63° E 18:40:47 10° NE visible
04 Dec 7.0 20:52:08 10° WSW 23:05:53 57° NNW 23:31:07 10° ENE visible
